[[{"header":{"parameterUnit":"m.s-1","parameterCategory":1,"la1":30.2991,"la2":30.254,"lo1":-89.0895,"lo2":-89.0444,"dy":0.0017,"dx":0.0017,"nx":28,"ny":28,"refTime":"2023-08-13T03:00:00:Z","depth":0,"parameterNumber":2,"parameterNumberName":"U-component_of_WINDS"},"data":[0,0,0,0,0,0,0,0,0,0,0,0,0,0,0,0,0,0,0,0,0,0,0,0,0,0,0,0,0,0,0,0,0,0,0,0,0,0,0,0,0,0,0,0,0,0,0,0,0,0,0,0,0,0,0,0,0,0,0.8688,0.8689,0,0.8799,0.88,0.8801,0.8815,0.8814,0.8813,0.8812,0.8928,0.8932,0.8936,0,0,0,0,0,0,0,0,0,0,0,0,0,0.8487,0.8491,0.8688,0.8689,0.869,0.8798,0.88,0.8802,0.8815,0.8814,0.8812,0.8811,0.8927,0.8932,0.8937,0,0,0,0,0,0,0,0,0,0,0,0,0,0.8584,0.8492,0.8687,0.871,0.8713,0.8798,0.88,0.8802,0.8815,0.8814,0.8812,0.8811,0.8925,0.8931,0.8937,0.9008,0,0,0.8956,0.8959,0,0,0,0,0,0,0,0,0.8579,0.8591,0.8705,0.8709,0.8712,0.8791,0.8772,0.8871,0.8816,0.8777,0.8812,0.881,0.8884,0.8894,0.8918,0.9014,0.9019,0.8957,0.8961,0.8963,0.8965,0,0,0,0,0,0,0,0.8572,0.8587,0.8732,0.8707,0.8711,0.8715,0.8727,0.8791,0.8838,0.878,0.8781,0.8794,0.8886,0.8912,0.8921,0.902,0.8957,0.8962,0.8966,0.8968,0.9177,0.9178,0,0,0,0,0,0,0.8561,0.8581,0.8728,0.8735,0.864,0.872,0.8733,0.8768,0.8838,0.8847,0.8795,0.8794,0.8902,0.8914,0.8925,0.9011,0.8963,0.8969,0.8973,0.9175,0.9177,0.9179,0,0,0,0,0,0,0.8556,0.8574,0.8724,0.8658,0.8678,0.8725,0.8764,0.8771,0.8797,0.8849,0.8858,0.8813,0.8902,0.8916,0.8987,0.9015,0.8972,0.8977,0.9173,0.9176,0.9178,0.9183,0,0,0,0,0,0,0.8551,0.8572,0.86,0.8659,0.8681,0.8783,0.8765,0.8774,0.8807,0.8807,0.8869,0.8877,0.8901,0.8977,0.8993,0.9023,0.8982,0.917,0.9174,0.9177,0.9181,0.9186,0.919,0,0,0,0,0,0.8543,0.8598,0.8601,0.8619,0.8716,0.8785,0.8798,0.8823,0.881,0.8837,0.887,0.8875,0.9009,0.8984,0.9002,0.9034,0.9169,0.9173,0.9177,0.9179,0.9185,0.919,0,0,0,0,0,0,0.8543,0.8606,0.861,0.8686,0.8729,0.8787,0.8823,0.883,0.8879,0.8877,0.8908,0.8921,0.899,0.9019,0.899,0.9105,0.9088,0.9096,0.9083,0.9089,0.9094,0.9085,0.8987,0,0,0,0,0,0.8551,0.8601,0.8654,0.8715,0.8737,0.8776,0.8807,0.8822,0.887,0.8889,0.8927,0.8973,0.9025,0.9059,0.911,0.9185,0.9198,0.9216,0.922,0.9224,0.923,0.927,0.9277,0.9193,0.9192,0.9192,0,0,0.8569,0.861,0.864,0.8716,0.8752,0.8802,0.8792,0.8846,0.8884,0.8897,0.8965,0.8994,0.9048,0.912,0.9153,0.9146,0.9256,0.9229,0.9232,0.9236,0.9275,0.9283,0.929,0.9195,0.9195,0.9194,0,0,0.8628,0.8664,0.8718,0.8753,0.8807,0.8832,0.8845,0.8901,0.892,0.8989,0.8999,0.9044,0.9134,0.9171,0.9201,0.927,0.9276,0.9286,0.9311,0.9349,0.9355,0.9361,0.9384,0.9392,0.9292,0.9292,0.9292,0,0.8644,0.872,0.8745,0.8798,0.8831,0.8843,0.8897,0.8931,0.8999,0.9021,0.9012,0.9122,0.916,0.9239,0.9255,0.928,0.9295,0.9279,0.9352,0.9359,0.9365,0.9387,0.9395,0.9293,0.9293,0.9293,0.9293,0,0.8736,0.8788,0.8825,0.8888,0.8925,0.8979,0.9012,0.9046,0.9058,0.9083,0.9151,0.9196,0.9255,0.9275,0.9288,0.9356,0.9349,0.9346,0.9329,0.9373,0.9394,0.9403,0.9294,0.9294,0.9294,0.9294,0,0,0.8798,0.8873,0.8886,0.8913,0.8972,0.9013,0.9067,0.9123,0.9151,0.9197,0.9241,0.9316,0.9312,0.9346,0.9363,0.9397,0.9446,0.9389,0.9391,0.9396,0.952,0.9522,0.9531,0.945,0.9451,0.9453,0.9515,0,0.8862,0.8957,0.898,0.9061,0.9108,0.912,0.9166,0.9207,0.9232,0.9276,0.9304,0.9355,0.9347,0.9368,0.9401,0.9433,0.9471,0.9429,0.9491,0.9493,0.9476,0.9543,0.9545,0.9602,0.9524,0.9525,0.9526,0,0.895,0.8996,0.9081,0.9131,0.9152,0.9193,0.9245,0.9287,0.9333,0.9349,0.9385,0.9399,0.9454,0.9434,0.9509,0.948,0.9507,0.9526,0.9528,0.9535,0.9512,0.9549,0.9621,0.9629,0.954,0.9539,0.9538,0,0.8985,0.9068,0.9129,0.9152,0.9213,0.9241,0.9268,0.9312,0.9343,0.9389,0.9409,0.9461,0.9489,0.9529,0.9555,0.9538,0.9628,0.9611,0.9642,0.9641,0.966,0.9658,0.9735,0.9679,0.9679,0.9678,0.9678,0,0.9053,0.9105,0.9145,0.9182,0.9239,0.9265,0.932,0.9347,0.9386,0.9428,0.9442,0.9481,0.9514,0.9558,0.9579,0.9637,0.965,0.9664,0.9669,0.9662,0.966,0.968,0.9676,0.9681,0.968,0.968,0.9679,0,0.9102,0.9131,0.9198,0.9248,0.9262,0.9302,0.9345,0.9382,0.9406,0.9459,0.9473,0.9512,0.9564,0.9594,0.966,0.9674,0.9738,0.9742,0.9722,0.9724,0.9752,0.9749,0.9844,0.9857,0.9793,0.9793,0.9794,0,0.9143,0.9182,0.9237,0.9265,0.9292,0.9338,0.937,0.9396,0.9428,0.9481,0.9511,0.9563,0.9606,0.9689,0.9723,0.9772,0.9777,0.9806,0.9784,0.9776,0.9775,0.9772,0.9775,0.981,0.9811,0.9811,0.9812,0,0.9213,0.9224,0.9269,0.9318,0.9354,0.9395,0.9434,0.9457,0.949,0.9525,0.9577,0.961,0.9676,0.9727,0.978,0.9807,0.9814,0.9818,0.9828,0.9821,0.9807,0.9813,0.9731,0.9816,0.9815,0.9815,0.9815,0.9815,0.9258,0.9292,0.9335,0.9384,0.9416,0.9452,0.9488,0.9516,0.956,0.9614,0.9627,0.9682,0.9724,0.9795,0.9823,0.9865,0.986,0.9875,0.9878,0.9881,0.9881,0.9801,0.9875,0.9875,0.9875,0.9875,0.9875,0,0.9327,0.9354,0.9399,0.9453,0.949,0.9493,0.9536,0.9568,0.9615,0.9654,0.9695,0.9754,0.9803,0.984,0.989,0.9917,0.9921,0.9929,0.9927,0.9932,0.9883,0.9869,0.9924,0.9924,0.9924,0.9924,0.9924,0.9924,0.9367,0.9425,0.9441,0.9514,0.9542,0.9594,0.9618,0.9651,0.9682,0.9747,0.9787,0.981,0.9848,0.99,0.9944,0.9954,0.9971,0.9978,0.9988,0.9941,0.9936,0.9931,0.9918,0.9982,0.9982,1.0033,1.0033,1.0034]},{"header":{"parameterUnit":"m.s-1","parameterCategory":1,"la1":30.2991,"la2":30.254,"lo1":-89.0895,"lo2":-89.0444,"dy":0.0017,"dx":0.0017,"nx":28,"ny":28,"refTime":"2023-08-13T03:00:00:Z","depth":0,"parameterNumber":3,"parameterNumberName":"V-component_of_WINDS"},"data":[0,0,0,0,0,0,0,0,0,0,0,0,0,0,0,0,0,0,0,0,0,0,0,0,0,0,0,0,0,0,0,0,0,0,0,0,0,0,0,0,0,0,0,0,0,0,0,0,0,0,0,0,0,0,0,0,0,0,4.2638,4.2637,0,4.2584,4.2583,4.2582,4.2572,4.2572,4.2573,4.2573,4.251,4.2508,4.2506,0,0,0,0,0,0,0,0,0,0,0,0,0,4.2725,4.2724,4.2638,4.2637,4.2637,4.2584,4.2583,4.2582,4.2572,4.2573,4.2573,4.2574,4.2511,4.2509,4.2506,0,0,0,0,0,0,0,0,0,0,0,0,0,4.2681,4.2723,4.2638,4.2625,4.2624,4.2584,4.2583,4.2582,4.2572,4.2573,4.2573,4.2574,4.2512,4.2509,4.2506,4.2473,0,0,4.2496,4.2495,0,0,0,0,0,0,0,0,4.2683,4.2677,4.2628,4.2626,4.2624,4.2585,4.2591,4.2545,4.2572,4.2591,4.2573,4.2574,4.2534,4.2529,4.2517,4.247,4.2467,4.2496,4.2494,4.2493,4.2492,0,0,0,0,0,0,0,4.2686,4.268,4.2616,4.2627,4.2625,4.262,4.2614,4.2582,4.2559,4.259,4.2589,4.2583,4.2533,4.2521,4.2516,4.2466,4.2496,4.2493,4.2491,4.249,4.2385,4.2384,0,0,0,0,0,0,4.2693,4.2682,4.2618,4.2615,4.2656,4.2618,4.2611,4.2597,4.256,4.2555,4.2582,4.2583,4.2526,4.252,4.2514,4.2471,4.2493,4.249,4.2488,4.2386,4.2385,4.2384,0,0,0,0,0,0,4.2695,4.2687,4.262,4.2648,4.2639,4.2615,4.2599,4.2596,4.2583,4.2554,4.255,4.2574,4.2526,4.2518,4.2483,4.2468,4.2488,4.2485,4.2387,4.2386,4.2384,4.2385,0,0,0,0,0,0,4.2697,4.2688,4.2677,4.2648,4.2638,4.2593,4.2599,4.2594,4.2578,4.2578,4.2545,4.254,4.2526,4.2488,4.248,4.2464,4.2483,4.2388,4.2386,4.2385,4.2386,4.2384,4.2382,0,0,0,0,0,4.27,4.2678,4.2676,4.2669,4.2624,4.2592,4.2586,4.2572,4.2577,4.2565,4.2546,4.2541,4.2471,4.2484,4.2475,4.2459,4.2389,4.2387,4.2385,4.2387,4.2385,4.2382,0,0,0,0,0,0,4.2704,4.2674,4.2672,4.2641,4.2619,4.259,4.2574,4.257,4.2544,4.2545,4.2526,4.2519,4.2484,4.2468,4.2482,4.2423,4.243,4.2426,4.2435,4.2432,4.243,4.2434,4.248,0,0,0,0,0,4.2702,4.268,4.2655,4.2629,4.2619,4.2598,4.2584,4.2575,4.2551,4.2541,4.252,4.2495,4.2467,4.2449,4.2422,4.2384,4.2375,4.2368,4.2366,4.2364,4.2361,4.2337,4.2333,4.2377,4.2377,4.2377,0,0,4.2695,4.2677,4.2664,4.2629,4.2612,4.2587,4.2591,4.2565,4.2546,4.2536,4.2502,4.2485,4.2456,4.2419,4.2401,4.2404,4.2347,4.2362,4.2361,4.2358,4.2335,4.233,4.2327,4.2376,4.2376,4.2376,0,0,4.2672,4.2657,4.2633,4.2615,4.2589,4.2576,4.257,4.2542,4.2531,4.2497,4.2488,4.2464,4.2417,4.2395,4.2378,4.2345,4.2339,4.2337,4.2325,4.2302,4.2299,4.2295,4.2281,4.2277,4.2333,4.2333,4.2333,0,4.2667,4.2633,4.2621,4.2596,4.2579,4.2572,4.2546,4.2528,4.2494,4.2481,4.2485,4.2425,4.2405,4.2362,4.2353,4.2341,4.2331,4.234,4.2301,4.2297,4.2294,4.228,4.2275,4.2333,4.2333,4.2333,4.2333,0,4.2627,4.2603,4.2586,4.2555,4.2537,4.2512,4.2493,4.2476,4.2468,4.2453,4.2416,4.2392,4.2359,4.2348,4.2339,4.2302,4.2305,4.2305,4.2311,4.229,4.2276,4.2271,4.2333,4.2333,4.2333,4.2333,0,0,4.2604,4.2567,4.2561,4.2545,4.2515,4.2495,4.2468,4.2438,4.2422,4.2398,4.2373,4.2333,4.2332,4.2313,4.2302,4.2282,4.2254,4.2284,4.2283,4.2278,4.2209,4.2208,4.2202,4.225,4.2249,4.2249,4.2211,0,4.2576,4.253,4.2518,4.2478,4.2454,4.2445,4.2421,4.2398,4.2383,4.2358,4.234,4.2312,4.2315,4.2303,4.2283,4.2262,4.224,4.2265,4.2224,4.2222,4.223,4.2196,4.2195,4.2161,4.2206,4.2205,4.2204,0,4.2537,4.2514,4.2472,4.2443,4.2433,4.2412,4.2382,4.2359,4.2332,4.2322,4.23,4.2291,4.2258,4.2268,4.2222,4.2239,4.2221,4.2208,4.2206,4.22,4.2211,4.2188,4.215,4.2144,4.2196,4.2197,4.2198,0,4.2522,4.248,4.245,4.2437,4.2404,4.2389,4.2373,4.2347,4.2329,4.2302,4.2289,4.2258,4.2241,4.2215,4.2196,4.2205,4.215,4.2158,4.2139,4.2139,4.2127,4.2127,4.2084,4.2118,4.2118,4.2118,4.2118,0,4.2491,4.2465,4.2442,4.2423,4.2393,4.2378,4.2347,4.2331,4.2308,4.2283,4.2273,4.2249,4.2226,4.2198,4.2183,4.2146,4.2138,4.2127,4.2123,4.2127,4.2128,4.2114,4.2115,4.2117,4.2117,4.2117,4.2117,0,4.2469,4.2454,4.2419,4.239,4.2382,4.2361,4.2335,4.2314,4.2299,4.2267,4.2259,4.2233,4.22,4.2179,4.2136,4.2125,4.2084,4.2081,4.2094,4.2091,4.2072,4.2073,4.2017,4.2007,4.2049,4.2049,4.2049,0,4.245,4.243,4.24,4.2384,4.2369,4.2343,4.2325,4.2308,4.2289,4.2256,4.2238,4.2205,4.2177,4.2123,4.2099,4.2065,4.2061,4.2043,4.2055,4.206,4.2058,4.2059,4.2055,4.2041,4.204,4.204,4.204,0,4.2416,4.2409,4.2385,4.2357,4.2336,4.2313,4.229,4.2276,4.2255,4.2233,4.2201,4.2179,4.2136,4.2101,4.2065,4.2046,4.2038,4.2036,4.2029,4.2033,4.204,4.2034,4.2086,4.2037,4.2038,4.2038,4.2038,4.2038,4.2394,4.2375,4.2351,4.2323,4.2304,4.2282,4.2261,4.2243,4.2216,4.2181,4.2172,4.2137,4.2107,4.2059,4.2039,4.2009,4.201,4.2001,4.1999,4.1996,4.1995,4.2047,4.2002,4.2002,4.2002,4.2002,4.2002,0,4.2358,4.2342,4.2317,4.2286,4.2263,4.226,4.2234,4.2214,4.2184,4.2159,4.2132,4.2092,4.2059,4.2032,4.1996,4.1977,4.1972,4.1968,4.1968,4.1963,4.1996,4.2005,4.1972,4.1972,4.1972,4.1972,4.1972,4.1972,4.2337,4.2305,4.2295,4.2251,4.2234,4.2202,4.2187,4.2165,4.2144,4.2102,4.2075,4.2058,4.2031,4.1993,4.1961,4.1953,4.194,4.1936,4.1927,4.1958,4.1961,4.1964,4.1972,4.1934,4.1933,4.1897,4.1896,4.1896]}]]